Theta_e
331 330 330 330 330 330 331 330 330 329 328 327 327 325 323 322 322 322 321 320 319 319 318 318 318 318 317 318 318 318 318 318 318 318 317 318 319 319 319 319 318 318 319 320 321 322 326 329 326 323 322 322 323 326 328 327 327 328 329 329 329 329 328
331 331 330 330 330 330 330 330 330 330 329 329 328 327 324 323 322 322 321 321 320 319 319 318 318 318 318 318 318 319 319 318 318 317 317 318 319 319 319 319 319 318 317 318 319 319 322 325 326 326 323 320 320 322 325 326 327 328 328 329 329 328 328
333 331 331 331 331 331 330 330 330 330 329 329 329 327 325 323 323 323 322 321 320 319 319 318 318 318 319 318 318 319 319 319 318 318 318 318 318 318 318 319 319 319 317 317 318 319 320 320 322 324 321 320 321 320 319 321 323 325 327 329 328 328 327
333 332 332 332 331 331 330 330 330 330 330 329 329 328 327 326 326 324 322 321 321 320 319 319 319 319 319 319 318 319 318 319 319 319 319 318 318 317 318 319 319 319 317 318 318 318 320 320 322 324 320 318 319 319 318 319 320 321 325 328 328 328 327
334 334 333 333 332 331 331 330 330 330 330 330 329 329 328 327 327 326 323 322 322 321 320 320 319 318 319 319 319 319 319 319 319 319 319 318 318 317 317 318 319 320 318 317 317 317 319 320 321 323 320 318 319 319 318 318 320 320 323 327 327 327 327
336 335 334 334 332 332 331 331 330 330 330 330 330 330 329 328 328 327 326 324 324 322 321 320 319 319 318 318 319 319 319 319 319 319 319 319 320 319 318 318 318 319 319 318 317 317 318 318 319 322 320 318 318 318 318 318 320 320 321 325 327 327 327
335 334 333 333 333 332 332 332 332 331 331 331 330 330 330 330 329 328 328 326 325 324 323 321 320 320 319 318 319 319 319 320 320 320 320 320 320 320 320 319 318 319 318 319 319 317 317 317 318 320 319 319 318 316 317 318 319 321 323 326 327 326 325
334 333 333 333 332 332 332 332 332 331 332 331 331 331 331 331 330 329 329 328 327 326 325 324 322 321 321 319 319 319 320 320 320 320 320 320 320 320 321 320 319 319 317 318 319 318 318 318 317 317 318 321 322 321 322 320 318 319 322 325 327 325 322
333 332 332 332 332 332 332 332 332 331 331 330 331 331 331 331 331 331 330 329 329 328 327 327 325 323 322 321 321 320 320 320 320 321 320 321 320 320 320 320 320 320 318 319 319 319 319 318 318 317 317 319 322 324 327 326 322 320 320 322 323 322 320
333 332 332 332 332 332 332 332 332 332 331 330 331 331 331 331 331 331 331 330 330 329 328 327 326 326 324 322 322 321 321 320 320 320 320 320 320 319 320 320 320 320 319 320 319 319 319 319 319 318 317 317 319 322 325 327 326 323 320 319 319 320 319
332 331 332 332 332 332 332 332 331 331 332 331 331 331 331 332 332 331 331 331 331 330 329 328 328 327 326 325 324 322 322 321 320 320 320 320 320 320 320 320 321 320 320 320 320 319 319 319 319 319 318 317 318 320 322 324 325 321 318 318 318 319 319
332 331 332 332 331 331 331 331 331 331 331 331 331 331 331 331 331 331 331 331 331 330 330 329 329 328 328 327 326 325 324 322 321 321 321 320 320 320 320 320 320 320 320 320 320 320 320 320 319 319 318 317 317 318 319 320 322 320 317 318 317 317 318
331 331 331 331 331 331 331 331 331 331 331 331 331 330 330 330 330 331 331 331 331 330 330 330 329 329 329 329 328 327 327 325 323 322 322 321 320 320 320 320 320 320 320 320 320 320 320 320 319 319 319 318 317 318 317 318 321 321 317 317 316 316 317
331 331 331 331 331 331 331 331 331 331 331 331 331 331 331 331 331 330 330 331 330 330 330 330 330 330 329 329 329 328 328 327 325 325 323 322 322 321 321 321 321 321 320 320 320 320 319 319 319 319 319 319 318 318 317 317 319 319 317 316 317 316 317
331 331 331 331 331 331 331 332 331 332 332 332 331 331 331 331 331 331 331 331 331 330 330 330 329 330 329 329 329 329 329 328 327 326 325 324 324 323 322 321 321 321 320 320 320 320 320 319 319 319 319 319 319 319 318 317 318 317 316 317 317 317 317
331 331 331 331 331 331 331 332 332 332 332 332 331 331 330 330 331 331 331 331 331 330 330 329 329 329 329 329 329 329 329 328 328 327 327 326 326 325 324 322 321 321 320 321 320 320 320 319 320 320 319 319 320 320 319 318 318 317 316 317 318 318 317
331 331 331 331 332 332 332 332 332 332 332 332 332 331 330 330 330 331 331 331 331 330 330 329 329 329 329 328 328 328 328 329 328 328 327 327 326 326 325 324 323 322 321 320 320 320 320 320 320 320 320 320 320 320 319 319 318 318 317 317 318 318 318
331 331 332 331 332 332 332 332 332 333 333 332 332 332 331 331 330 330 331 330 330 331 330 330 329 329 329 329 328 328 328 328 328 328 328 327 327 327 326 325 325 324 322 322 321 321 320 320 320 320 321 320 320 319 319 319 318 318 318 317 318 318 318
331 331 331 331 331 332 332 333 333 333 333 333 333 332 331 330 330 331 331 331 331 331 330 330 330 329 329 329 328 328 328 328 328 328 328 327 327 327 326 326 325 324 323 323 322 322 321 320 320 320 320 321 320 320 320 319 319 318 319 318 318 319 318
331 330 331 332 332 332 332 332 332 331 331 330 329 329 328 328 329 329 330 330 330 330 330 329 329 329 328 328 328 328 328 328 327 327 327 327 326 327 326 326 325 324 323 323 322 322 321 321 321 321 321 321 321 320 320 320 319 319 319 319 318 318 318
331 331 331 331 329 328 327 326 326 325 324 324 324 325 326 325 326 327 328 328 329 329 330 329 329 329 328 328 328 328 327 327 327 326 327 326 326 326 326 326 326 325 324 322 322 322 322 322 322 321 321 321 321 321 320 320 319 319 318 318 318 318 318
329 328 327 325 323 322 321 321 321 320 320 323 324 325 325 324 324 325 326 327 328 329 329 329 328 328 328 328 327 327 327 327 326 326 326 326 325 326 326 326 326 325 324 323 323 324 324 324 323 322 322 321 321 321 320 320 319 319 318 318 317 318 317
326 324 322 320 319 319 320 321 319 319 322 324 325 324 322 322 323 324 325 326 328 328 327 327 327 326 327 327 327 327 327 326 326 326 325 325 325 325 325 325 325 324 324 324 324 324 324 325 325 324 324 323 323 322 321 320 319 318 318 317 317 317 316
323 322 320 318 320 321 322 323 321 320 322 324 324 323 321 322 322 322 324 326 326 326 326 325 325 324 324 324 324 325 325 325 325 325 325 324 324 325 325 324 324 324 323 324 324 324 324 324 324 324 324 324 324 324 323 321 320 319 318 317 317 317 316
322 321 320 319 321 322 323 324 322 321 321 323 323 322 321 321 320 319 324 327 326 324 323 320 319 318 318 318 319 322 324 324 325 324 325 324 324 324 324 324 324 324 324 324 324 324 324 324 324 323 323 323 323 323 323 323 322 321 320 319 318 318 317
322 322 321 320 321 322 323 323 321 319 320 320 320 318 318 318 318 319 325 327 324 320 317 315 315 314 314 314 314 316 319 320 320 320 319 319 319 321 322 322 322 322 323 323 323 323 323 323 323 323 323 323 323 323 323 323 323 323 321 320 319 318 319
322 322 321 319 319 320 320 319 318 317 317 316 315 316 317 318 319 323 327 325 320 316 314 314 314 313 313 312 312 312 313 313 313 313 312 312 313 315 317 318 320 321 322 322 322 323 322 322 321 321 321 322 322 322 323 323 323 322 322 321 320 319 320
321 321 319 318 317 316 316 316 316 315 313 313 313 315 318 320 323 326 326 323 318 315 313 312 311 309 307 306 307 307 308 308 308 308 308 309 309 310 312 314 316 318 320 321 320 320 319 317 317 317 317 318 318 318 319 321 321 322 321 321 321 320 320
320 319 318 316 314 314 314 314 314 313 312 312 312 312 315 319 324 326 323 320 317 314 311 309 308 306 304 302 302 303 303 303 303 303 303 304 304 306 308 311 312 315 318 320 319 316 312 310 309 310 312 313 314 314 314 315 316 318 319 320 321 321 320
318 317 316 315 313 313 313 313 312 312 311 310 310 310 310 313 321 324 321 317 316 312 309 308 307 305 304 303 302 302 302 302 302 302 302 302 302 303 305 308 310 311 313 315 314 311 309 308 307 307 308 309 310 310 310 310 311 312 313 316 319 321 321
316 314 315 314 313 313 313 312 311 310 309 308 308 309 308 308 315 320 319 316 315 312 309 307 307 305 304 304 303 303 302 302 302 302 303 303 303 303 303 305 306 307 307 308 308 307 307 307 307 307 307 307 308 307 306 306 308 309 309 311 313 317 320
315 313 314 314 313 313 312 312 311 310 309 308 307 308 308 307 311 317 318 315 314 313 309 307 306 306 305 306 306 305 304 302 302 303 304 304 304 305 305 305 305 305 306 306 306 306 306 306 306 307 307 307 307 308 307 306 307 308 309 310 310 312 315
315 313 313 314 313 312 312 312 311 311 310 309 308 307 307 307 309 314 317 317 316 314 310 308 306 306 306 306 307 307 305 303 303 303 304 304 304 305 305 305 305 306 306 306 307 307 308 308 308 309 309 308 308 310 310 310 309 309 309 310 310 310 312
315 312 311 313 313 312 312 312 312 311 310 309 308 307 307 307 308 310 314 316 316 313 310 308 307 307 307 306 307 307 305 304 304 304 304 304 304 304 304 305 306 307 307 307 308 309 309 309 310 310 310 310 310 311 311 311 312 311 310 310 310 310 310
313 311 310 312 311 310 311 312 311 311 310 309 308 308 307 308 308 308 310 311 311 310 308 308 308 307 307 306 307 307 305 304 304 304 304 304 304 304 304 305 306 307 308 308 308 308 308 309 309 309 310 310 311 312 312 312 312 312 311 311 310 310 310
311 310 310 310 310 309 310 311 311 311 310 308 308 307 308 308 308 308 308 309 309 309 308 308 308 308 307 307 307 307 305 304 305 304 304 304 304 304 305 306 307 308 308 307 307 307 307 307 308 308 309 310 311 312 313 313 312 312 311 311 311 311 311
310 310 309 309 309 308 308 309 311 310 309 308 308 308 307 308 308 308 308 308 308 308 308 308 308 308 307 307 307 306 305 304 305 305 305 305 305 305 306 307 307 307 307 306 306 307 307 307 307 308 308 308 309 311 312 313 313 312 312 312 311 312 312
Wind_Speed
4 4 3 2 2 2 2 3 3 3 2 2 2 1 0 0 2 3 4 5 5 5 7 8 8 10 10 9 10 12 12 11 10 10 10 11 12 12 12 11 12 12 12 11 7 3 2 1 5 6 5 7 4 5 8 7 4 2 1 1 1 2 2
4 3 2 3 3 3 3 3 3 3 3 3 2 1 1 1 1 1 2 4 4 3 4 5 7 9 8 6 6 8 9 9 8 8 8 9 11 11 12 11 11 10 10 11 11 8 5 3 3 4 5 8 6 2 4 6 7 6 4 3 2 0 2
4 4 3 4 5 5 5 4 4 3 3 3 2 2 2 2 2 3 2 2 3 3 2 2 5 7 6 5 5 6 6 6 6 7 7 8 9 9 10 12 11 9 8 7 9 9 6 3 2 3 5 6 5 5 6 7 6 7 7 6 4 3 1
5 4 5 5 6 7 7 6 5 4 4 3 2 1 2 3 4 4 3 2 1 2 1 1 3 4 4 4 4 4 4 4 4 4 5 6 7 7 7 11 10 7 5 4 4 6 6 3 2 3 5 6 6 8 10 12 8 5 7 9 7 6 4
5 4 5 5 5 6 6 6 5 6 5 5 4 3 3 4 5 5 4 3 2 2 2 1 2 2 2 2 1 2 3 3 1 1 3 4 6 6 5 8 9 5 4 4 4 4 5 4 2 1 5 7 5 7 12 14 9 4 5 10 9 7 5
4 4 4 4 4 4 4 4 5 6 7 7 7 6 5 5 6 6 6 5 5 4 3 3 1 1 2 2 2 0 1 2 0 2 1 1 3 5 4 4 5 3 3 5 5 3 3 4 3 2 4 6 4 6 10 12 10 6 4 10 10 8 5
4 4 4 4 3 4 5 5 6 7 8 8 8 7 6 6 7 7 6 7 8 7 6 6 4 3 3 4 4 2 1 2 2 3 3 3 3 4 4 3 2 2 3 4 4 4 4 5 4 1 2 5 4 4 6 8 10 8 1 8 9 7 3
4 4 4 4 4 5 5 5 5 6 8 8 8 7 7 7 7 8 7 7 8 8 9 9 8 6 5 6 6 6 4 4 4 5 6 6 6 6 5 4 3 3 4 4 4 4 6 7 7 5 1 3 3 4 4 5 8 9 7 4 8 6 2
5 5 5 5 5 5 5 5 5 5 6 7 7 7 7 7 8 8 8 9 8 9 10 11 11 10 9 9 8 9 8 6 6 7 7 8 8 8 8 7 6 5 5 5 6 6 7 8 8 7 3 1 1 2 3 4 4 5 9 7 2 4 2
6 6 7 6 6 6 6 6 6 7 6 6 6 6 7 8 8 9 9 9 9 9 10 11 13 13 12 12 11 11 10 8 8 9 9 10 10 9 9 10 11 10 8 7 8 8 8 9 9 8 7 4 1 1 0 3 3 2 4 7 4 3 5
5 5 5 6 6 7 7 6 7 7 7 7 7 7 8 9 10 10 11 11 10 11 11 12 14 15 15 16 15 15 14 11 10 11 11 12 12 12 12 12 13 14 12 10 11 11 9 9 10 9 9 8 7 4 3 2 3 4 5 7 7 7 9
6 5 5 5 6 7 7 6 7 7 7 7 8 8 9 11 12 13 13 13 13 13 13 13 14 15 17 18 18 18 18 16 15 14 14 14 14 15 15 15 14 16 15 13 13 13 12 10 11 11 10 9 11 10 7 5 2 4 7 9 12 13 13
6 5 5 6 7 8 8 9 9 9 8 8 9 9 10 12 13 14 15 16 16 16 16 16 16 17 18 19 20 20 20 19 19 19 17 16 16 16 18 19 18 18 17 17 16 15 14 13 13 13 13 12 13 13 12 8 4 7 14 15 16 15 13
6 6 6 7 8 9 9 10 10 10 10 10 11 11 12 13 14 15 16 17 18 19 19 19 19 19 20 21 22 22 21 21 22 22 21 20 19 19 19 20 21 21 20 19 19 18 17 16 16 16 16 15 16 16 15 13 8 8 15 17 15 14 13
8 8 8 8 9 10 10 10 10 11 11 11 11 12 13 14 15 16 17 18 19 19 20 20 20 20 22 23 24 24 24 24 24 24 24 24 23 22 21 21 20 20 21 22 22 22 21 19 18 19 19 18 19 19 18 18 13 9 12 18 18 16 15
9 9 10 10 10 10 10 11 11 12 12 12 12 13 14 15 16 17 18 18 19 19 19 20 20 21 22 23 24 26 26 27 27 26 26 26 25 24 24 24 22 20 20 23 23 23 24 23 21 21 22 22 21 20 20 21 19 15 14 19 21 19 18
11 11 11 11 11 11 12 12 12 13 13 13 13 14 14 15 16 17 18 19 19 20 21 22 22 22 23 23 24 25 27 28 29 28 28 27 26 25 26 26 26 24 22 23 25 25 25 25 24 23 23 24 24 22 21 22 23 22 19 18 20 22 21
12 12 12 12 11 11 11 11 12 13 14 15 16 17 18 18 19 20 21 22 22 22 22 23 23 23 24 25 26 26 27 27 29 30 30 29 28 26 26 27 28 27 26 26 25 26 26 26 26 26 26 26 26 25 24 23 25 25 23 21 22 24 23
13 13 13 13 12 13 13 14 14 15 15 15 15 16 17 17 18 19 21 22 23 24 25 25 25 25 25 26 26 26 26 26 27 27 27 27 27 26 26 27 28 28 29 29 29 28 27 26 27 28 29 28 29 28 27 26 26 26 26 25 25 25 24
14 13 12 11 10 10 9 9 9 9 10 10 11 12 13 14 15 15 16 16 17 17 18 19 19 19 19 20 20 20 22 22 21 21 21 22 24 26 25 23 24 24 26 28 29 28 27 28 27 28 29 30 31 31 29 28 27 26 25 25 24 24 25
8 6 3 3 6 8 10 11 12 12 13 14 15 15 16 16 16 17 17 17 17 16 16 15 15 15 15 15 14 14 15 15 15 17 18 20 22 24 23 21 21 22 23 23 24 23 23 25 26 27 28 28 30 31 31 30 28 26 25 24 23 24 24
4 7 10 12 13 14 14 14 15 15 16 17 17 17 17 19 19 19 19 18 17 16 16 17 17 17 16 15 14 13 11 11 12 14 16 17 19 20 21 20 20 20 21 20 21 21 20 19 21 23 23 23 23 25 27 28 27 26 25 22 22 22 20
14 15 15 15 16 15 15 15 16 17 18 18 18 18 19 20 21 21 20 19 17 17 18 19 19 18 18 17 16 14 12 11 12 13 14 16 17 19 19 20 20 19 19 19 19 19 19 18 18 18 18 20 21 20 20 22 23 23 22 20 21 21 17
17 17 17 17 17 16 15 16 18 18 18 18 17 18 19 19 20 20 19 17 17 18 19 19 19 19 19 18 17 16 15 14 13 13 14 15 16 18 18 18 18 19 19 18 18 19 21 21 21 20 20 20 21 22 21 22 21 19 18 18 19 19 17
18 18 17 16 16 15 15 17 18 18 18 18 16 17 18 18 19 19 17 16 17 19 20 20 20 20 20 20 18 17 17 16 16 15 15 15 16 17 18 18 18 18 18 18 19 19 20 21 21 21 20 18 20 22 22 23 24 23 23 21 20 20 19
18 18 16 16 15 15 16 17 18 18 18 17 17 18 18 17 18 17 15 16 18 21 22 22 22 22 22 22 21 19 18 17 17 16 16 16 16 16 17 19 19 19 19 19 19 19 19 20 20 20 19 17 19 21 22 22 23 25 27 27 24 24 25
18 17 16 16 16 17 17 16 17 17 18 18 19 20 20 19 18 16 15 16 19 21 23 22 23 23 23 23 22 21 20 19 19 19 19 19 18 17 18 19 20 20 19 18 18 18 18 19 20 20 19 18 19 20 21 22 23 24 26 29 30 31 32
17 16 16 16 16 16 16 15 16 18 19 20 21 22 21 20 18 16 15 15 18 21 22 22 23 24 24 24 23 22 21 21 21 20 20 21 21 20 20 20 20 20 18 16 16 16 18 20 21 21 21 20 20 20 19 20 22 23 24 26 30 34 36
17 16 15 15 16 16 15 15 16 17 18 19 20 22 22 20 17 15 14 15 17 20 22 23 24 25 26 26 25 24 24 23 22 22 21 21 22 22 22 22 22 21 18 16 16 19 22 23 23 22 22 21 21 21 21 20 20 21 22 23 25 30 34
16 15 14 14 15 15 14 14 15 15 16 18 20 21 22 21 16 13 14 15 16 20 22 24 25 26 26 26 26 26 26 25 25 25 24 24 23 23 23 23 23 22 21 19 21 24 26 27 27 24 22 22 23 24 25 24 21 21 21 21 23 25 28
16 14 13 12 12 12 12 12 13 15 16 18 18 19 20 21 18 13 13 15 15 18 22 24 26 26 25 25 26 27 27 27 27 27 26 26 25 24 24 23 23 23 23 24 25 27 28 30 30 27 24 22 22 25 27 27 25 23 23 22 23 22 23
14 14 12 10 9 10 11 11 12 13 15 17 18 17 17 20 18 13 11 12 13 16 20 23 24 24 23 24 26 27 28 28 27 27 27 27 27 27 27 27 26 26 26 27 28 29 29 28 28 26 24 21 21 25 27 27 26 26 25 25 25 24 25
11 12 12 9 8 9 10 10 10 10 12 14 16 16 16 17 17 13 9 8 10 13 16 19 21 22 22 22 23 26 27 27 26 26 26 26 27 29 30 30 29 28 28 28 28 28 27 26 26 26 25 22 21 23 25 25 24 24 24 25 25 25 25
10 11 11 10 10 10 9 8 7 8 10 12 14 15 14 14 15 13 9 7 7 10 12 15 17 18 19 19 21 24 27 26 25 25 26 26 27 28 30 31 30 28 27 28 28 28 27 26 27 27 27 25 24 25 25 24 24 23 23 24 25 25 25
10 10 11 12 13 11 8 6 5 6 8 10 12 13 12 11 11 11 9 6 6 8 11 12 13 15 16 17 19 23 26 26 25 25 26 27 28 29 30 30 28 27 27 27 27 28 27 27 27 28 27 26 25 25 25 23 22 22 22 22 23 24 26
9 8 9 11 11 9 7 6 4 4 7 10 11 10 9 8 8 8 7 5 5 7 9 10 11 11 13 15 19 23 25 26 26 27 27 27 29 29 28 27 26 26 26 26 27 28 29 29 30 30 30 28 26 25 25 23 21 20 21 21 21 22 24
6 5 6 7 9 10 10 7 4 4 6 9 9 8 7 5 5 6 7 7 7 8 9 9 9 9 11 14 19 23 25 26 28 30 30 29 28 27 26 25 25 25 25 26 27 27 28 30 31 31 31 30 28 26 25 24 22 21 21 21 21 21 22
Wind_Direction
297 309 322 330 302 297 323 324 339 14 21 1 10 10 287 5 15 36 51 54 67 83 83 78 71 71 69 62 63 63 59 56 53 49 40 34 32 30 35 44 49 50 55 59 60 74 107 357 355 15 18 8 350 260 264 270 269 261 218 176 114 59 44
296 302 303 320 311 300 306 301 308 341 3 358 328 293 218 214 306 341 29 51 68 91 99 83 73 79 75 61 64 70 64 57 50 43 39 37 34 32 33 33 31 31 41 50 48 52 77 76 357 326 340 359 4 330 293 282 270 261 240 221 228 292 21
291 285 282 298 296 292 292 282 284 303 336 351 318 243 199 217 265 279 288 1 70 99 104 92 87 84 83 84 83 78 73 64 54 42 35 29 23 28 35 35 31 26 28 34 36 40 51 68 40 300 315 343 329 317 342 344 302 268 243 219 219 236 294
288 283 283 295 290 284 287 284 282 289 306 326 322 269 228 236 256 263 264 278 126 139 128 109 116 97 89 104 86 60 57 56 55 42 24 11 3 6 23 31 32 35 45 37 30 46 52 56 40 307 312 330 308 293 326 344 336 291 236 217 217 227 235
276 279 286 300 299 289 290 285 277 282 291 298 299 295 272 254 255 254 241 232 234 218 215 201 147 132 117 129 99 49 37 29 51 14 355 2 7 3 1 18 24 33 52 29 8 43 54 53 59 326 318 338 323 297 324 340 338 320 216 209 221 225 218
262 268 279 293 294 290 294 286 277 279 284 290 293 297 299 286 270 262 251 249 261 258 236 237 219 167 173 195 213 200 16 3 257 224 284 326 357 359 347 357 14 12 5 358 347 352 13 14 26 19 334 342 321 292 324 343 341 328 206 198 214 218 216
251 258 262 269 268 271 283 288 286 280 279 284 289 296 303 295 278 267 263 262 262 260 256 255 253 244 230 225 231 250 286 301 273 241 235 240 260 304 324 326 318 310 309 316 321 310 301 311 318 315 348 343 321 294 319 341 355 6 132 190 200 204 240
244 254 259 261 257 263 276 286 291 285 281 283 285 289 291 286 280 269 263 265 262 259 261 261 257 254 253 249 248 254 259 262 266 259 247 243 244 258 280 296 291 287 285 282 287 281 278 292 299 288 1 27 344 322 323 334 357 21 48 144 184 194 266
246 255 260 258 255 262 270 284 300 297 288 288 288 285 283 283 284 276 268 268 266 263 260 259 259 256 258 262 257 253 253 251 253 259 255 248 246 249 254 267 274 272 272 274 276 272 270 280 290 291 292 91 66 335 331 335 339 12 37 51 166 212 309
247 255 263 266 266 263 264 279 296 295 289 289 287 282 280 281 282 279 274 273 271 267 260 256 258 257 257 259 258 253 255 255 254 259 260 255 255 254 255 262 265 263 265 268 268 267 268 275 284 291 290 275 216 150 276 322 301 274 353 3 346 317 338
246 261 272 274 268 259 264 283 291 291 292 289 283 279 276 275 275 274 273 274 273 269 262 259 259 260 258 257 257 257 257 256 256 259 261 262 263 261 261 265 264 262 263 264 264 262 261 271 279 284 287 274 257 226 191 226 280 267 288 317 323 324 324
253 270 275 268 261 259 269 284 287 291 296 291 284 281 278 277 276 275 273 274 274 272 269 265 263 262 261 260 259 259 259 256 254 257 257 259 264 265 265 266 262 260 263 265 263 258 256 263 270 273 275 268 263 259 236 213 241 277 277 287 296 304 311
250 260 263 264 267 272 277 280 284 292 296 293 291 288 286 285 283 281 279 277 276 276 274 272 269 265 262 262 261 260 261 257 253 256 257 256 260 263 266 268 266 263 262 263 261 255 252 257 263 264 264 262 261 262 256 237 222 268 279 285 289 291 296
245 252 258 263 270 275 275 275 281 289 289 289 290 289 288 290 290 289 287 285 282 280 279 277 275 271 266 265 263 261 261 258 255 256 257 257 258 260 263 266 269 268 263 260 260 257 252 255 259 258 257 257 256 256 256 245 230 262 282 286 288 289 293
243 248 252 259 265 269 272 276 281 283 282 286 288 286 287 288 290 289 288 288 287 285 284 283 281 277 273 270 267 263 260 257 256 256 255 256 258 260 261 262 265 267 264 261 260 258 256 255 256 256 254 253 252 253 252 249 242 246 272 281 284 286 290
244 248 252 258 264 269 274 279 281 279 281 287 289 287 289 289 288 287 286 286 285 283 284 284 283 279 277 276 273 268 264 259 256 255 255 256 258 260 260 260 261 262 261 260 259 258 257 256 255 255 256 254 251 251 250 248 246 243 254 271 278 281 284
243 248 255 261 266 272 277 280 282 282 284 289 291 293 294 293 290 288 285 284 283 282 281 281 281 279 278 278 277 274 271 265 260 257 255 256 258 259 259 259 260 261 261 260 260 259 257 256 256 255 255 255 250 249 249 247 246 245 246 257 268 274 278
244 250 257 263 269 274 277 280 284 286 288 291 294 296 296 296 294 292 289 287 285 283 283 282 280 279 280 281 279 278 275 271 267 264 260 258 258 260 261 263 264 264 262 260 261 262 259 257 257 255 255 253 249 248 250 248 247 247 244 247 258 267 271
242 248 257 265 273 280 285 289 293 297 301 303 305 308 310 311 311 309 307 303 297 293 291 289 286 285 285 284 284 285 282 277 273 269 265 264 264 264 265 267 270 270 268 265 262 263 263 260 257 255 254 253 250 249 248 247 248 247 244 246 253 259 263
243 255 269 280 291 303 314 323 333 344 350 353 355 355 354 353 351 350 348 343 337 329 321 316 311 307 304 301 298 297 293 287 279 270 267 271 273 273 272 273 274 277 280 277 270 266 268 267 263 259 256 254 253 250 248 248 248 246 244 246 249 252 256
260 275 307 16 41 43 44 42 39 35 30 27 26 24 22 17 12 10 10 11 15 15 10 3 353 344 338 333 328 319 308 296 284 277 279 283 281 277 276 279 278 277 280 283 279 275 275 276 273 268 263 260 256 251 248 247 247 245 244 243 243 245 248
102 94 88 78 68 59 51 46 41 35 33 34 35 34 31 26 20 17 15 17 21 22 20 16 10 4 360 357 355 349 334 314 298 293 293 292 285 278 275 277 280 281 282 285 287 283 281 281 277 272 271 270 267 261 256 252 249 244 239 237 238 241 241
100 91 80 69 60 54 49 44 39 37 37 38 37 34 29 27 25 22 21 23 25 24 23 22 19 18 18 17 17 16 7 347 329 316 310 307 300 293 288 285 287 293 293 293 296 293 289 289 288 282 278 273 271 272 270 265 258 250 241 236 235 234 231
88 79 70 64 61 56 50 43 39 38 35 32 33 32 28 27 25 21 23 29 31 31 32 30 28 28 30 32 33 33 28 16 4 352 341 334 326 319 316 314 313 313 309 307 306 301 297 296 297 294 288 280 275 273 270 266 264 260 258 256 250 242 234
81 75 69 66 64 58 52 46 40 35 29 26 30 32 31 31 24 19 25 36 41 43 43 40 39 38 39 40 40 39 38 32 25 19 10 1 352 345 343 343 342 340 336 332 326 318 313 312 312 308 300 291 283 276 270 264 261 258 258 260 261 257 249
82 77 71 66 61 56 52 48 43 38 34 33 36 35 35 33 25 24 38 48 49 51 50 46 45 44 42 41 40 40 40 37 33 29 22 16 9 2 358 355 352 350 349 348 344 340 335 331 330 326 317 307 295 288 283 277 269 263 256 252 252 254 254
84 79 70 62 57 54 52 49 47 48 47 44 42 40 39 37 34 41 55 58 56 56 53 48 44 42 40 38 37 37 37 36 35 32 28 24 21 17 13 9 3 360 359 359 357 355 352 347 343 339 335 329 319 311 304 294 284 277 268 258 253 252 253
83 74 66 62 60 57 55 54 56 58 55 50 47 47 47 46 49 56 57 56 61 60 53 47 42 38 36 33 31 31 30 28 28 28 26 24 22 21 19 14 10 8 8 8 8 5 359 355 350 346 342 337 331 326 318 308 298 291 284 274 265 259 256
79 72 67 67 65 62 63 65 64 61 56 53 52 52 51 50 53 58 56 57 63 61 52 45 39 34 31 28 26 26 25 23 21 21 21 19 18 18 18 13 9 8 7 5 1 356 351 348 345 342 337 332 328 325 319 316 313 306 299 292 283 273 266
78 73 73 75 73 70 72 71 64 58 54 53 52 52 51 50 52 60 64 64 64 59 50 41 34 30 28 28 27 25 22 19 17 15 14 14 13 13 14 11 6 3 360 353 346 343 342 341 339 336 330 324 321 317 314 316 318 314 310 305 297 289 280
78 75 76 79 79 80 82 77 66 60 56 53 52 49 47 49 54 65 71 70 65 57 48 38 30 28 29 29 29 25 20 16 14 11 8 7 8 9 9 7 4 360 353 347 343 340 336 334 331 329 325 319 312 306 308 313 314 312 312 310 306 301 295
81 75 71 76 86 93 93 84 71 64 58 53 51 46 41 46 57 73 81 73 64 53 42 34 30 28 27 26 25 23 19 14 12 9 6 5 5 5 4 2 360 356 350 346 343 339 335 333 331 328 324 315 302 301 309 313 310 307 307 307 307 305 301
89 73 66 76 96 100 99 90 75 66 62 55 51 47 41 44 57 72 81 71 57 44 33 29 28 26 25 23 21 20 18 14 10 7 5 4 2 360 359 357 355 354 351 347 345 343 342 341 339 335 330 319 305 309 318 317 308 305 303 301 303 302 299
96 79 73 86 97 97 101 97 76 66 64 56 50 50 46 44 52 64 70 61 44 30 21 19 20 19 18 19 19 18 16 14 9 5 3 2 359 356 354 353 353 354 353 352 354 357 357 355 352 348 342 333 324 323 323 318 314 312 306 302 304 303 299
96 86 85 96 97 92 98 102 79 67 69 60 55 55 51 46 48 54 58 51 28 12 7 7 8 8 10 15 18 17 14 12 10 6 2 359 356 354 352 352 354 357 0 5 11 14 14 13 11 8 3 356 347 341 334 327 324 323 318 313 311 308 307
99 93 95 100 96 90 99 108 97 79 71 62 54 51 49 46 42 39 36 26 4 351 349 352 356 357 1 11 17 16 13 11 10 6 2 358 354 353 355 356 360 5 12 18 20 21 22 23 22 21 20 19 14 8 359 350 341 337 333 329 323 318 318
96 96 99 93 80 75 77 82 104 112 77 59 49 40 34 30 23 18 10 357 345 336 332 336 342 348 356 9 15 13 11 10 7 4 2 359 357 358 0 3 9 16 22 24 23 22 23 24 23 23 24 24 23 21 16 6 355 346 340 336 330 326 326